STARLINK-1672, 46537

Orbit data source: Space-Track

STARLINK-1672, 46537 is a payload satellite owned by SpaceX/Seattle (US) in LEO that was launched on Tue, 06 Oct 2020 UTC via an FALCON 9 launch vehicle from the Air Force Eastern Test Range (AFETR). Payload-class satellites include a variety of spacecraft equipped with specific instruments for various scientific and technological missions. These include communications satellites like Starlink; space stations such as the ISS; scientific satellites like the Hubble; Earth observation satellites from companies like Planet Labs, Umbra, and HawkEye 360; GPS; miniature CubeSats for education and research; and military/defense satellites.

Loading next visibility...
Identifier
46537, 2020-070F
Orbit
LEO
Country
Flag of USUS
Related business
Manufacturer
SpaceX/Seattle
Mission
Partially operational Commercial Communications
Bus & Motor
STARLINK, Unknown motor
Mass
260 kg wet, ~248 kg dry
Launch date (UTC)
2020-10-06 (6 years ago)
Launch vehicle
FALCON 9
Launch site
Air Force Eastern Test Range (AFETR)
Object type
Payload
Rocket body
Debris
Shape & HBR
Box + 1 Pan, 10.1 m
Radar Cross Section
13.562 m², Large (>1 m²)

Expand to show TLE details & history
Last TLE update: 9 hours ago

TLE from 9 hours ago
0 STARLINK-1672
1 46537U 20070F   26123.35092531  .00061977  00000-0  81683-3 0  9995
2 46537  53.0467 234.5082 0003579 291.6948  68.3682 15.57852397308544
Epoch: 2026-05-03T08:25Z
TLE epoch observation values (Epoch: 2026-05-03T08:25:19.946Z)
Latitude
-0.00004°
Longitude
-113.08066°
Altitude
393.879 km
Speed
7.676 km/s
True Right ascension
15h 38m 01s
True Declination
0° 00' 00"
Sunlit
Object was in full shadow at epoch
Visualization orbit readout
Latitude
Unknown
Longitude
Unknown
Altitude
Unknown
Speed
Unknown
Apparent Right ascension
Unknown
Apparent Declination
Unknown
Sunlit
N/A
Visualization observer readout
Local Sidereal Time
01:24:51
Azimuth
Unknown
Elevation
Unknown
Doppler factor
Unknown
Orbital elements
Apogee altitude
396.575 km
Perigee altitude
391.728 km
Semi-major axis
6,772.289 km
Eccentricity
0.00036
Inclination
53.0467°
RAAN
234.5082°
Arg. of periapsis
291.6948°
True anomaly
68.40633°
Mean anomaly
68.3682°
Eccentric anomaly
68.38726°
Mean motion
3.89439 °/min
Orbital period
92.44 mins
BSTAR
0.00081683
Loading maneuver chart data...
Computing Atmospheric mass density...

Documentation

Showing up to 5 results
|